Location: Recife
(8.0585°S, 34.8848°W)
Time: 09:41:44
(UTC-03:00)

SR - Pass Details

Date: 23 April 2026
Orbit: 568 x 852 km, 66.7° (Epoch: 12 May)

Event Time Altitude Azimuth Distance (km) Brightness Sun altitude
Rises 09:40:02 0° 190° (S) 2,774 ? 58.1°
Reaches altitude 10° 09:42:20 10° 183° (S) 1,870 ? 58.5°
Maximum altitude 09:46:17 42° 111° (ESE) 817 ? 59.2°
Drops below altitude 10° 09:50:19 10° 39° (NE) 1,904 ? 60.0°
Sets 09:52:40 0° 32° (NNE) 2,831 ? 60.4°
